Terug naar catalogus

CSTP-1.1

ActiefWetenschapSSO
NORAD 57202·PAYLOAD·🇷🇺 Russia
Deze satellietnaam is nog niet bevestigd door officiële bronnen.

Gelanceerd Jun 27, 2023 vanaf Vostochny Cosmodrome

Loading…

Volgende Passages (komende 24 uur)

TLE

VersSource: Space-Track

Epoch: Sep 14, 2026, 12:08 UTC

1 57202U 23091AN  26257.50577551  .00004040  00000-0  19162-3 0  9998
2 57202  97.5020 315.8151 0010096 149.9919 210.1897 15.19814943177528

Volg CSTP-1.1 in realtime met AllMySat

Download on the App Store